Volver al catálogo

COSMOS 1275 DEB

ActivoPO
NORAD 14228·DEBRIS·🇷🇺 Russia

Lanzado Jun 4, 1981 desde Plesetsk Cosmodrome

Loading…

Próximos Pases (próximas 24 horas)

TLE

ActualizadoSource: Space-Track

Época: Sep 13, 2026, 18:21 UTC

1 14228U 81053HN  26256.76464931  .00000970  00000-0  80971-3 0  9999
2 14228  82.9680  10.0067 0090344  49.7832 101.5426 13.85586700181405

Sigue COSMOS 1275 DEB en tiempo real con AllMySat

Download on the App Store